This is the latest recevied weather packets stored in our database for station/object KA3ZXO. If no packets are shown the sender has not sent any weather packets the latest 10 day(s).
| Time | Temp. | Humidity | Pressure | Rain* | Wind** | Luminosity | Snow |
|---|---|---|---|---|---|---|---|
| 1777613443 | 10° C | 65% | 1014 hPa | 0 mm | - | 0 W/m² | - |
| 1777612841 | 10.56° C | 63% | 1014 hPa | 0 mm | - | 0 W/m² | - |
| 1777612239 | 11.11° C | 61% | 1013.8 hPa | 0 mm | - | 0 W/m² | - |
| 1777611636 | 11.11° C | 60% | 1013.8 hPa | 0 mm | - | 0 W/m² | - |
| 1777611036 | 11.11° C | 59% | 1013.8 hPa | 0 mm | - | 0 W/m² | - |
| 1777610436 | 11.67° C | 59% | 1013.7 hPa | 0 mm | - | 0 W/m² | - |
| 1777609835 | 11.67° C | 58% | 1013.8 hPa | 0 mm | - | 0 W/m² | - |
| 1777609235 | 11.67° C | 59% | 1013.7 hPa | 0 mm | - | 0 W/m² | - |
| 1777608635 | 11.67° C | 57% | 1013.6 hPa | 0 mm | - | 0 W/m² | - |
| 1777608030 | 11.67° C | 57% | 1013.5 hPa | 0 mm | - | 0 W/m² | - |
| 1777607428 | 12.22° C | 57% | 1013.3 hPa | 0 mm | - | 0 W/m² | - |
| 1777606826 | 12.22° C | 57% | 1013.3 hPa | 0 mm | - | 0 W/m² | - |
| 1777606222 | 12.22° C | 56% | 1013.3 hPa | 0 mm | - | 0 W/m² | - |
| 1777605620 | 12.78° C | 56% | 1013.2 hPa | 0 mm | - | 0 W/m² | - |
| 1777605016 | 12.78° C | 55% | 1013.3 hPa | 0 mm | - | 0 W/m² | - |
| 1777604414 | 12.78° C | 55% | 1013.5 hPa | 0 mm | - | 0 W/m² | - |
| 1777603811 | 12.78° C | 56% | 1013.5 hPa | 0 mm | - | 0 W/m² | - |
| 1777603209 | 13.33° C | 55% | 1013.3 hPa | 0 mm | - | 0 W/m² | - |
| 1777602606 | 13.33° C | 56% | 1013.3 hPa | 0 mm | - | 0 W/m² | - |
| 1777602003 | 13.33° C | 56% | 1013 hPa | 0 mm | - | 0 W/m² | - |
| 1777601399 | 13.89° C | 56% | 1013.1 hPa | 0 mm | - | 0 W/m² | - |
| 1777600799 | 13.89° C | 58% | 1013.1 hPa | 0 mm | - | 0 W/m² | - |
| 1777600196 | 14.44° C | 57% | 1012.9 hPa | 0 mm | - | 0 W/m² | - |
| 1777599595 | 14.44° C | 54% | 1012.6 hPa | 0 mm | - | 0 W/m² | - |
| 1777598994 | 15° C | 54% | 1012.4 hPa | 0 mm | - | 0 W/m² | - |
* Rain latest hour (hover to see other rain measurements)
** Current wind speed in m/s (hover to see current wind gust speed)